Date String (YYYY-MM-DD hh:mm:ss) UTC,Instrument flags,Ambient pressure (hPa),Sample flow (lpm),Bypass flow (lpm),Sample temperature (°C),Ambient temperature (°C),ASC tube jacket temperature (°C),LED temperature (°C),Box temperature (°C),Sample RH (%),Span deviation,Mass concentration (μg/m³),Mass concentration (μg/m³),Mass concentration (μg/m³)
DateTimeUTC,F1_M11,P_M11,Q1_M11,Q2_M11,T1_M11,T2_M11,T3_M11,T4_M11,T5_M11,U1_M11,ZSPAN_M11,X0_M11,X2_M11,X1_M11
2021-12-31 13:00:00,,0808.5,5.00,0.00,22.3,21.8,00.0,31.3,23.9,10.0,0000.0,0011.13,0002.87,0001.12
2021-12-31 13:01:00,,0808.5,5.01,0.00,22.2,21.7,00.0,31.3,23.9,10.1,0000.0,0011.16,0002.84,0001.12
2021-12-31 13:02:00,,0808.5,4.99,0.00,22.2,21.7,00.0,31.3,23.9,10.1,0000.0,0011.47,0002.92,0001.11
2021-12-31 13:03:00,,0808.5,5.00,0.00,22.2,21.6,00.0,31.3,23.8,10.2,0000.0,0011.80,0003.03,0001.10
2021-12-31 13:04:00,,0808.4,5.01,0.00,22.2,21.6,00.0,31.3,23.8,10.2,0000.0,0011.96,0003.12,0001.09
2021-12-31 13:05:00,,0808.4,5.01,0.00,22.2,21.5,00.0,31.3,23.8,10.3,0000.0,0011.74,0003.13,0001.09
2021-12-31 13:06:00,,0808.5,4.98,0.00,22.1,21.4,00.0,31.2,23.7,10.5,0000.0,0011.67,0003.09,0001.09
2021-12-31 13:07:00,,0808.5,5.00,0.00,22.1,21.4,00.0,31.2,23.7,10.5,0000.0,0011.73,0003.05,0001.08
2021-12-31 13:08:00,,0808.5,5.00,0.00,22.1,21.4,00.0,31.2,23.7,10.7,0000.0,0012.30,0003.06,0001.08
2021-12-31 13:09:00,,0808.4,5.01,0.00,22.0,21.4,00.0,31.2,23.6,10.7,0000.0,0012.19,0002.98,0001.06
2021-12-31 13:10:00,,0808.6,4.98,0.00,22.1,21.9,00.0,31.2,23.8,10.6,0000.0,0011.77,0002.97,0001.05
2021-12-31 13:11:00,,0808.6,5.00,0.00,22.2,22.7,00.0,31.3,24.1,10.5,0000.0,0011.81,0002.90,0001.04
2021-12-31 13:12:00,,0808.6,5.00,0.00,22.4,23.3,00.0,31.3,24.4,10.5,0000.0,0011.34,0002.82,0001.04
2021-12-31 13:13:00,,0808.6,5.00,0.00,22.5,23.1,00.0,31.3,24.4,10.5,0000.0,0011.02,0002.66,0001.03
2021-12-31 13:14:00,,0808.6,5.00,0.00,22.5,22.9,00.0,31.3,24.4,10.5,0000.0,0010.36,0002.46,0001.02
2021-12-31 13:15:00,,0808.7,5.00,0.00,22.5,22.7,00.0,31.4,24.3,10.5,0000.0,0009.56,0002.30,0001.02
2021-12-31 13:16:00,,0808.7,5.00,0.00,22.5,22.5,00.0,31.4,24.3,10.6,0000.0,0010.10,0002.25,0001.00
2021-12-31 13:17:00,,0808.7,5.02,0.00,22.5,22.4,00.0,31.4,24.2,10.6,0000.0,0011.16,0002.27,0000.98
2021-12-31 13:18:00,,0808.7,4.99,0.00,22.5,22.2,00.0,31.4,24.2,10.6,0000.0,0011.19,0002.28,0000.96
2021-12-31 13:19:00,,0808.7,5.01,0.00,22.4,22.1,00.0,31.4,24.1,10.5,0000.0,0010.67,0002.22,0000.95
2021-12-31 13:20:00,,0808.8,5.01,0.00,22.4,22.0,00.0,31.4,24.1,10.4,0000.0,0010.79,0002.25,0000.96
2021-12-31 13:21:00,,0808.9,5.00,0.00,22.4,21.9,00.0,31.4,24.1,10.4,0000.0,0011.49,0002.40,0000.99
2021-12-31 13:22:00,,0808.9,4.99,0.00,22.4,21.8,00.0,31.4,24.0,10.4,0000.0,0011.44,0002.49,0001.00
2021-12-31 13:23:00,,0809.0,5.00,0.00,22.3,21.7,00.0,31.4,23.9,10.4,0000.0,0011.36,0002.48,0000.99
2021-12-31 13:24:00,,0809.0,5.00,0.00,22.2,21.6,00.0,31.4,23.8,10.3,0000.0,0010.93,0002.55,0001.01
2021-12-31 13:25:00,,0809.0,5.01,0.00,22.2,21.5,00.0,31.3,23.7,10.3,0000.0,0010.61,0002.59,0001.02
2021-12-31 13:26:00,,0809.0,5.01,0.00,22.1,21.4,00.0,31.3,23.6,10.4,0000.0,0011.35,0002.70,0001.04
2021-12-31 13:27:00,,0809.0,4.99,0.00,22.1,21.3,00.0,31.3,23.6,10.4,0000.0,0010.84,0002.77,0001.07
2021-12-31 13:28:00,,0809.0,4.99,0.00,22.0,21.3,00.0,31.3,23.6,10.5,0000.0,0009.87,0002.74,0001.09
2021-12-31 13:29:00,,0809.0,5.01,0.00,22.0,21.2,00.0,31.2,23.6,10.6,0000.0,0010.66,0002.75,0001.11
2021-12-31 13:30:00,,0809.0,5.00,0.00,22.0,21.1,00.0,31.2,23.5,10.7,0000.0,0011.22,0002.79,0001.12
2021-12-31 13:31:00,,0809.1,5.01,0.00,21.9,21.1,00.0,31.2,23.4,10.8,0000.0,0011.16,0002.81,0001.13
2021-12-31 13:32:00,,0809.1,4.99,0.00,21.9,21.0,00.0,31.1,23.4,10.8,0000.0,0010.72,0002.65,0001.13
2021-12-31 13:33:00,,0809.1,5.00,0.00,21.8,20.9,00.0,31.1,23.4,10.8,0000.0,0010.58,0002.61,0001.13
2021-12-31 13:34:00,,0809.1,5.00,0.00,21.8,20.9,00.0,31.1,23.4,10.9,0000.0,0010.70,0002.65,0001.14
2021-12-31 13:35:00,,0809.0,4.99,0.00,21.8,20.9,00.0,31.1,23.3,11.0,0000.0,0010.77,0002.62,0001.13
2021-12-31 13:36:00,,0809.1,5.00,0.00,21.7,20.9,00.0,31.0,23.2,11.1,0000.0,0010.70,0002.62,0001.13
2021-12-31 13:37:00,,0809.1,5.00,0.00,21.7,20.8,00.0,31.0,23.2,11.1,0000.0,0010.22,0002.55,0001.09
2021-12-31 13:38:00,,0809.2,5.01,0.00,21.6,20.7,00.0,31.0,23.1,11.1,0000.0,0010.67,0002.52,0001.06
2021-12-31 13:39:00,,0809.2,4.99,0.00,21.7,21.1,00.0,30.9,23.2,11.1,0000.0,0010.78,0002.60,0001.06
2021-12-31 13:40:00,,0809.2,5.00,0.00,21.8,21.9,00.0,31.0,23.5,11.1,0000.0,0009.99,0002.58,0001.06
2021-12-31 13:41:00,,0809.2,5.01,0.00,21.9,22.6,00.0,31.0,23.9,11.0,0000.0,0009.54,0002.54,0001.06
2021-12-31 13:42:00,,0809.1,4.99,0.00,22.0,22.5,00.0,31.0,23.9,10.9,0000.0,0009.15,0002.54,0001.04
2021-12-31 13:43:00,,0809.1,5.01,0.00,22.0,22.3,00.0,31.0,23.8,10.9,0000.0,0009.08,0002.56,0001.03
2021-12-31 13:44:00,,0809.1,4.99,0.00,22.0,21.9,00.0,31.0,23.7,10.8,0000.0,0009.81,0002.53,0001.03
2021-12-31 13:45:00,,0809.1,5.00,0.00,21.9,21.6,00.0,31.0,23.6,10.7,0000.0,0010.08,0002.47,0001.02
2021-12-31 13:46:00,,0809.1,5.00,0.00,21.9,21.5,00.0,31.0,23.4,10.7,0000.0,0010.64,0002.46,0001.02
2021-12-31 13:47:00,,0809.1,4.99,0.00,21.8,21.3,00.0,31.0,23.3,10.8,0000.0,0011.36,0002.55,0001.02
2021-12-31 13:48:00,,0809.0,4.98,0.00,21.8,21.1,00.0,31.0,23.3,10.8,0000.0,0011.88,0002.66,0001.06
2021-12-31 13:49:00,,0809.1,5.01,0.00,21.7,21.0,00.0,30.9,23.2,10.8,0000.0,0011.93,0002.67,0001.08
2021-12-31 13:50:00,,0809.1,5.00,0.00,21.6,20.9,00.0,30.9,23.1,10.8,0000.0,0011.95,0002.62,0001.09
2021-12-31 13:51:00,,0809.1,5.00,0.00,21.6,20.8,00.0,30.9,23.1,10.9,0000.0,0012.20,0002.60,0001.09
2021-12-31 13:52:00,,0809.2,5.00,0.00,21.5,20.7,00.0,30.8,23.0,10.9,0000.0,0011.95,0002.63,0001.10
2021-12-31 13:53:00,,0809.2,5.01,0.00,21.5,20.6,00.0,30.8,23.0,11.0,0000.0,0012.16,0002.70,0001.11
2021-12-31 13:54:00,,0809.3,5.00,0.00,21.4,20.5,00.0,30.8,22.9,11.1,0000.0,0012.10,0002.79,0001.11
2021-12-31 13:55:00,,0809.2,4.99,0.00,21.4,20.5,00.0,30.7,22.8,11.3,0000.0,0011.76,0002.81,0001.11
2021-12-31 13:56:00,,0809.3,5.01,0.00,21.3,20.5,00.0,30.7,22.8,11.5,0000.0,0011.41,0002.85,0001.10
2021-12-31 13:57:00,,0809.3,5.00,0.00,21.4,21.2,00.0,30.7,23.1,11.6,0000.0,0010.72,0002.80,0001.10
2021-12-31 13:58:00,,0809.3,4.99,0.00,21.6,22.1,00.0,30.7,23.4,11.5,0000.0,0010.80,0002.74,0001.09
2021-12-31 13:59:00,,0809.3,5.00,0.00,21.8,22.8,00.0,30.8,23.8,11.5,0000.0,0010.25,0002.71,0001.08
